TimeCDT,TemperatureF,Dew PointF,Humidity,Sea Level PressureIn,VisibilityMPH,Wind Direction,Wind SpeedMPH,Gust SpeedMPH,PrecipitationIn,Events,Conditions,WindDirDegrees,DateUTC
12:17 AM,53.6,39.2,58,29.82,10.0,South,4.6,-,N/A,,Clear,170,2012-10-03 05:17:00
12:36 AM,53.6,39.2,58,29.82,10.0,South,4.6,-,N/A,,Clear,170,2012-10-03 05:36:00
12:57 AM,53.6,39.2,58,29.83,10.0,South,5.8,-,N/A,,Clear,180,2012-10-03 05:57:00
1:17 AM,55.4,39.2,54,29.83,10.0,South,5.8,-,N/A,,Clear,180,2012-10-03 06:17:00
1:36 AM,55.4,39.2,54,29.83,10.0,South,6.9,-,N/A,,Clear,190,2012-10-03 06:36:00
1:57 AM,53.6,39.2,58,29.83,10.0,South,5.8,-,N/A,,Clear,190,2012-10-03 06:57:00
2:16 AM,53.6,39.2,58,29.83,10.0,South,6.9,-,N/A,,Clear,180,2012-10-03 07:16:00
2:37 AM,53.6,39.2,58,29.83,10.0,South,6.9,-,N/A,,Clear,190,2012-10-03 07:37:00
2:56 AM,53.6,39.2,58,29.83,10.0,South,5.8,-,N/A,,Clear,180,2012-10-03 07:56:00
3:16 AM,51.8,39.2,62,29.83,10.0,South,5.8,-,N/A,,Clear,190,2012-10-03 08:16:00
3:37 AM,51.8,37.4,58,29.83,10.0,South,6.9,-,N/A,,Clear,180,2012-10-03 08:37:00
4:16 AM,51.8,37.4,58,29.83,10.0,SSW,4.6,-,N/A,,Clear,200,2012-10-03 09:16:00
4:37 AM,50.0,37.4,62,29.83,10.0,South,4.6,-,N/A,,Clear,190,2012-10-03 09:37:00
4:56 AM,50.0,37.4,62,29.83,10.0,South,3.5,-,N/A,,Clear,190,2012-10-03 09:56:00
5:16 AM,46.4,37.4,71,29.84,10.0,Calm,Calm,-,N/A,,Clear,0,2012-10-03 10:16:00
5:56 AM,46.4,37.4,71,29.86,10.0,Calm,Calm,-,N/A,,Clear,0,2012-10-03 10:56:00
6:16 AM,44.6,37.4,76,29.87,10.0,Calm,Calm,-,N/A,,Clear,0,2012-10-03 11:16:00
6:37 AM,39.2,35.6,87,29.87,10.0,Calm,Calm,-,N/A,,Clear,0,2012-10-03 11:37:00
6:56 AM,37.4,33.8,87,29.87,10.0,Calm,Calm,-,N/A,,Clear,0,2012-10-03 11:56:00
7:16 AM,37.4,33.8,87,29.88,10.0,Calm,Calm,-,N/A,,Clear,0,2012-10-03 12:16:00
7:37 AM,37.4,33.8,87,29.88,10.0,Calm,Calm,-,N/A,,Clear,0,2012-10-03 12:37:00
7:56 AM,37.4,33.8,87,29.89,10.0,Calm,Calm,-,N/A,,Clear,0,2012-10-03 12:56:00
8:16 AM,37.4,33.8,87,29.90,10.0,Calm,Calm,-,N/A,,Clear,0,2012-10-03 13:16:00
8:37 AM,42.8,37.4,81,29.90,10.0,Calm,Calm,-,N/A,,Clear,0,2012-10-03 13:37:00
8:56 AM,46.4,39.2,76,29.90,10.0,Calm,Calm,-,N/A,,Clear,0,2012-10-03 13:56:00
9:17 AM,51.8,39.2,62,29.90,10.0,Calm,Calm,-,N/A,,Clear,0,2012-10-03 14:17:00
9:37 AM,51.8,37.4,58,29.90,10.0,West,3.5,-,N/A,,Clear,260,2012-10-03 14:37:00
9:56 AM,53.6,39.2,58,29.90,10.0,SW,3.5,-,N/A,,Clear,220,2012-10-03 14:56:00
10:17 AM,55.4,39.2,54,29.91,5.0,Calm,Calm,-,N/A,,Haze,0,2012-10-03 15:17:00
10:37 AM,57.2,39.2,51,29.91,4.0,Calm,Calm,-,N/A,,Haze,0,2012-10-03 15:37:00
10:56 AM,57.2,39.2,51,29.90,4.0,Calm,Calm,-,N/A,,Haze,0,2012-10-03 15:56:00
11:17 AM,60.8,39.2,45,29.90,4.0,Calm,Calm,-,N/A,,Haze,0,2012-10-03 16:17:00
11:37 AM,62.6,41.0,45,29.91,3.0,Calm,Calm,-,N/A,,Haze,0,2012-10-03 16:37:00
11:56 AM,64.4,41.0,42,29.91,3.0,West,4.6,-,N/A,,Haze,280,2012-10-03 16:56:00
12:17 PM,64.4,41.0,42,29.91,4.0,West,4.6,-,N/A,,Haze,270,2012-10-03 17:17:00
12:37 PM,66.2,41.0,40,29.90,4.0,Calm,Calm,-,N/A,,Haze,0,2012-10-03 17:37:00
12:56 PM,66.2,39.2,37,29.89,5.0,Calm,Calm,-,N/A,,Haze,0,2012-10-03 17:56:00
1:17 PM,68.0,39.2,35,29.88,5.0,South,3.5,-,N/A,,Haze,170,2012-10-03 18:17:00
1:37 PM,69.8,39.2,33,29.88,5.0,Calm,Calm,-,N/A,,Haze,0,2012-10-03 18:37:00
1:56 PM,69.8,39.2,33,29.87,5.0,Calm,Calm,-,N/A,,Haze,0,2012-10-03 18:56:00
2:17 PM,69.8,39.2,33,29.87,4.0,East,3.5,-,N/A,,Haze,80,2012-10-03 19:17:00
2:37 PM,71.6,37.4,29,29.87,5.0,Calm,Calm,-,N/A,,Haze,0,2012-10-03 19:37:00
2:56 PM,71.6,37.4,29,29.87,7.0,Calm,Calm,-,N/A,,Clear,0,2012-10-03 19:56:00
3:17 PM,71.6,37.4,29,29.87,7.0,Calm,Calm,-,N/A,,Clear,0,2012-10-03 20:17:00
3:36 PM,71.6,35.6,27,29.88,7.0,Calm,Calm,-,N/A,,Clear,0,2012-10-03 20:36:00
3:56 PM,71.6,35.6,27,29.89,7.0,Calm,Calm,-,N/A,,Clear,0,2012-10-03 20:56:00
4:16 PM,71.6,33.8,25,29.88,10.0,Calm,Calm,-,N/A,,Clear,0,2012-10-03 21:16:00
4:36 PM,69.8,37.4,31,29.88,7.0,North,6.9,-,N/A,,Clear,350,2012-10-03 21:36:00
4:57 PM,69.8,37.4,31,29.89,7.0,North,5.8,-,N/A,,Clear,360,2012-10-03 21:57:00
5:16 PM,69.8,39.2,33,29.89,7.0,North,6.9,-,N/A,,Clear,360,2012-10-03 22:16:00
5:57 PM,64.4,44.6,49,29.90,10.0,North,5.8,-,N/A,,Clear,350,2012-10-03 22:57:00
6:17 PM,62.6,42.8,48,29.91,10.0,North,5.8,-,N/A,,Clear,360,2012-10-03 23:17:00
6:37 PM,62.6,42.8,48,29.91,10.0,North,5.8,-,N/A,,Clear,360,2012-10-03 23:37:00
6:56 PM,60.8,42.8,52,29.92,10.0,North,3.5,-,N/A,,Clear,360,2012-10-03 23:56:00
7:17 PM,60.8,42.8,52,29.92,10.0,North,6.9,-,N/A,,Clear,10,2012-10-04 00:17:00
7:36 PM,59.0,42.8,55,29.92,10.0,North,5.8,-,N/A,,Clear,360,2012-10-04 00:36:00
7:57 PM,59.0,42.8,55,29.92,10.0,NE,4.6,-,N/A,,Scattered Clouds,40,2012-10-04 00:57:00
8:17 PM,57.2,42.8,59,29.93,10.0,North,3.5,-,N/A,,Clear,360,2012-10-04 01:17:00
8:37 PM,57.2,42.8,59,29.92,10.0,NE,4.6,-,N/A,,Clear,50,2012-10-04 01:37:00
8:57 PM,57.2,42.8,59,29.93,10.0,Calm,Calm,-,N/A,,Clear,0,2012-10-04 01:57:00
9:16 PM,55.4,42.8,63,29.93,10.0,North,3.5,-,N/A,,Clear,10,2012-10-04 02:16:00
9:37 PM,55.4,42.8,63,29.94,10.0,WNW,3.5,-,N/A,,Clear,300,2012-10-04 02:37:00
9:56 PM,55.4,42.8,63,29.94,10.0,North,3.5,-,N/A,,Clear,360,2012-10-04 02:56:00
10:17 PM,55.4,42.8,63,29.93,10.0,Calm,Calm,-,N/A,,Scattered Clouds,0,2012-10-04 03:17:00
10:37 PM,55.4,42.8,63,29.94,10.0,Calm,Calm,-,N/A,,Mostly Cloudy,0,2012-10-04 03:37:00
10:56 PM,55.4,42.8,63,29.94,10.0,Calm,Calm,-,N/A,,Scattered Clouds,0,2012-10-04 03:56:00
11:17 PM,55.4,42.8,63,29.93,10.0,Calm,Calm,-,N/A,,Scattered Clouds,0,2012-10-04 04:17:00
11:36 PM,55.4,42.8,63,29.93,10.0,North,3.5,-,N/A,,Scattered Clouds,10,2012-10-04 04:36:00
11:57 PM,55.4,42.8,63,29.92,10.0,North,3.5,-,N/A,,Clear,10,2012-10-04 04:57:00